Year,Month,Day,Hour,Minute,Value (Times are PST for insolation in W/m^2)
2016,01,24,00,00,0.00
2016,01,24,00,01,0.00
2016,01,24,00,02,0.00
2016,01,24,00,03,0.00
2016,01,24,00,04,0.00
2016,01,24,00,05,0.00
2016,01,24,00,06,0.00
2016,01,24,00,07,0.00
2016,01,24,00,08,0.00
2016,01,24,00,09,0.00
2016,01,24,00,10,0.00
2016,01,24,00,11,0.00
2016,01,24,00,12,0.00
2016,01,24,00,13,0.00
2016,01,24,00,14,0.00
2016,01,24,00,15,0.00
2016,01,24,00,16,0.00
2016,01,24,00,17,0.00
2016,01,24,00,18,0.00
2016,01,24,00,19,0.00
2016,01,24,00,20,0.00
2016,01,24,00,21,0.00
2016,01,24,00,22,0.00
2016,01,24,00,23,0.00
2016,01,24,00,24,0.00
2016,01,24,00,25,0.00
2016,01,24,00,26,0.00
2016,01,24,00,27,0.00
2016,01,24,00,28,0.00
2016,01,24,00,29,0.00
2016,01,24,00,30,0.00
2016,01,24,00,31,0.00
2016,01,24,00,32,0.00
2016,01,24,00,33,0.00
2016,01,24,00,34,0.00
2016,01,24,00,35,0.00
2016,01,24,00,36,0.00
2016,01,24,00,37,0.00
2016,01,24,00,38,0.00
2016,01,24,00,39,0.00
2016,01,24,00,40,0.00
2016,01,24,00,41,0.00
2016,01,24,00,42,0.00
2016,01,24,00,43,0.00
2016,01,24,00,44,0.00
2016,01,24,00,45,0.00
2016,01,24,00,46,0.00
2016,01,24,00,47,0.00
2016,01,24,00,48,0.00
2016,01,24,00,49,0.00
2016,01,24,00,50,0.00
2016,01,24,00,51,0.00
2016,01,24,00,52,0.00
2016,01,24,00,53,0.00
2016,01,24,00,54,0.00
2016,01,24,00,55,0.00
2016,01,24,00,56,0.00
2016,01,24,00,57,0.00
2016,01,24,00,58,0.00
2016,01,24,00,59,0.00
2016,01,24,01,00,0.00
2016,01,24,01,01,0.00
2016,01,24,01,02,0.00
2016,01,24,01,03,0.00
2016,01,24,01,04,0.00
2016,01,24,01,05,0.00
2016,01,24,01,06,0.00
2016,01,24,01,07,0.00
2016,01,24,01,08,0.00
2016,01,24,01,09,0.00
2016,01,24,01,10,0.00
2016,01,24,01,11,0.00
2016,01,24,01,12,0.00
2016,01,24,01,13,0.00
2016,01,24,01,14,0.00
2016,01,24,01,15,0.00
2016,01,24,01,16,0.00
2016,01,24,01,17,0.00
2016,01,24,01,18,0.00
2016,01,24,01,19,0.00
2016,01,24,01,20,0.00
2016,01,24,01,21,0.00
2016,01,24,01,22,0.00
2016,01,24,01,23,0.00
2016,01,24,01,24,0.00
2016,01,24,01,25,0.00
2016,01,24,01,26,0.00
2016,01,24,01,27,0.00
2016,01,24,01,28,0.00
2016,01,24,01,29,0.00
2016,01,24,01,30,0.00
2016,01,24,01,31,0.00
2016,01,24,01,32,0.00
2016,01,24,01,33,0.00
2016,01,24,01,34,0.00
2016,01,24,01,35,0.00
2016,01,24,01,36,0.00
2016,01,24,01,37,0.00
2016,01,24,01,38,0.00
2016,01,24,01,39,0.00
2016,01,24,01,40,0.00
2016,01,24,01,41,0.00
2016,01,24,01,42,0.00
2016,01,24,01,43,0.00
2016,01,24,01,44,0.00
2016,01,24,01,45,0.00
2016,01,24,01,46,0.00
2016,01,24,01,47,0.00
2016,01,24,01,48,0.00
2016,01,24,01,49,0.00
2016,01,24,01,50,0.00
2016,01,24,01,51,0.00
2016,01,24,01,52,0.00
2016,01,24,01,53,0.00
2016,01,24,01,54,0.00
2016,01,24,01,55,0.00
2016,01,24,01,56,0.00
2016,01,24,01,57,0.00
2016,01,24,01,58,0.00
2016,01,24,01,59,0.00
2016,01,24,02,00,0.00
2016,01,24,02,01,0.00
2016,01,24,02,02,0.00
2016,01,24,02,03,0.00
2016,01,24,02,04,0.00
2016,01,24,02,05,0.00
2016,01,24,02,06,0.00
2016,01,24,02,07,0.00
2016,01,24,02,08,0.00
2016,01,24,02,09,0.00
2016,01,24,02,10,0.00
2016,01,24,02,11,0.00
2016,01,24,02,12,0.00
2016,01,24,02,13,0.00
2016,01,24,02,14,0.00
2016,01,24,02,15,0.00
2016,01,24,02,16,0.00
2016,01,24,02,17,0.00
2016,01,24,02,18,0.00
2016,01,24,02,19,0.00
2016,01,24,02,20,0.00
2016,01,24,02,21,0.00
2016,01,24,02,22,0.00
2016,01,24,02,23,0.00
2016,01,24,02,24,0.00
2016,01,24,02,25,0.00
2016,01,24,02,26,0.00
2016,01,24,02,27,0.00
2016,01,24,02,28,0.00
2016,01,24,02,29,0.00
2016,01,24,02,30,0.00
2016,01,24,02,31,0.00
2016,01,24,02,32,0.00
2016,01,24,02,33,0.00
2016,01,24,02,34,0.00
2016,01,24,02,35,0.00
2016,01,24,02,36,0.00
2016,01,24,02,37,0.00
2016,01,24,02,38,0.00
2016,01,24,02,39,0.00
2016,01,24,02,40,0.00
2016,01,24,02,41,0.00
2016,01,24,02,42,0.00
2016,01,24,02,43,0.00
2016,01,24,02,44,0.00
2016,01,24,02,45,0.00
2016,01,24,02,46,0.00
2016,01,24,02,47,0.00
2016,01,24,02,48,0.00
2016,01,24,02,49,0.00
2016,01,24,02,50,0.00
2016,01,24,02,51,0.00
2016,01,24,02,52,0.00
2016,01,24,02,53,0.00
2016,01,24,02,54,0.00
2016,01,24,02,55,0.00
2016,01,24,02,56,0.00
2016,01,24,02,57,0.00
2016,01,24,02,58,0.00
2016,01,24,02,59,0.00
2016,01,24,03,00,0.00
2016,01,24,03,01,0.00
2016,01,24,03,02,0.00
2016,01,24,03,03,0.00
2016,01,24,03,04,0.00
2016,01,24,03,05,0.00
2016,01,24,03,06,0.00
2016,01,24,03,07,0.00
2016,01,24,03,08,0.00
2016,01,24,03,09,0.00
2016,01,24,03,10,0.00
2016,01,24,03,11,0.00
2016,01,24,03,12,0.00
2016,01,24,03,13,0.00
2016,01,24,03,14,0.00
2016,01,24,03,15,0.00
2016,01,24,03,16,0.00
2016,01,24,03,17,0.00
2016,01,24,03,18,0.00
2016,01,24,03,19,0.00
2016,01,24,03,20,0.00
2016,01,24,03,21,0.00
2016,01,24,03,22,0.00
2016,01,24,03,23,0.00
2016,01,24,03,24,0.00
2016,01,24,03,25,0.00
2016,01,24,03,26,0.00
2016,01,24,03,27,0.00
2016,01,24,03,28,0.00
2016,01,24,03,29,0.00
2016,01,24,03,30,0.00
2016,01,24,03,31,0.00
2016,01,24,03,32,0.00
2016,01,24,03,33,0.00
2016,01,24,03,34,0.00
2016,01,24,03,35,0.00
2016,01,24,03,36,0.00
2016,01,24,03,37,0.00
2016,01,24,03,38,0.00
2016,01,24,03,39,0.00
2016,01,24,03,40,0.00
2016,01,24,03,41,0.00
2016,01,24,03,42,0.00
2016,01,24,03,43,0.00
2016,01,24,03,44,0.00
2016,01,24,03,45,0.00
2016,01,24,03,46,0.00
2016,01,24,03,47,0.00
2016,01,24,03,48,0.00
2016,01,24,03,49,0.00
2016,01,24,03,50,0.00
2016,01,24,03,51,0.00
2016,01,24,03,52,0.00
2016,01,24,03,53,0.00
2016,01,24,03,54,0.00
2016,01,24,03,55,0.00
2016,01,24,03,56,0.00
2016,01,24,03,57,0.00
2016,01,24,03,58,0.00
2016,01,24,03,59,0.00
2016,01,24,04,00,0.00
2016,01,24,04,01,0.00
2016,01,24,04,02,0.00
2016,01,24,04,03,0.00
2016,01,24,04,04,0.00
2016,01,24,04,05,0.00
2016,01,24,04,06,0.00
2016,01,24,04,07,0.00
2016,01,24,04,08,0.00
2016,01,24,04,09,0.00
2016,01,24,04,10,0.00
2016,01,24,04,11,0.00
2016,01,24,04,12,0.00
2016,01,24,04,13,0.00
2016,01,24,04,14,0.00
2016,01,24,04,15,0.00
2016,01,24,04,16,0.00
2016,01,24,04,17,0.00
2016,01,24,04,18,0.00
2016,01,24,04,19,0.00
2016,01,24,04,20,0.00
2016,01,24,04,21,0.00
2016,01,24,04,22,0.00
2016,01,24,04,23,0.00
2016,01,24,04,24,0.00
2016,01,24,04,25,0.00
2016,01,24,04,26,0.00
2016,01,24,04,27,0.00
2016,01,24,04,28,0.00
2016,01,24,04,29,0.00
2016,01,24,04,30,0.00
2016,01,24,04,31,0.00
2016,01,24,04,32,0.00
2016,01,24,04,33,0.00
2016,01,24,04,34,0.00
2016,01,24,04,35,0.00
2016,01,24,04,36,0.00
2016,01,24,04,37,0.00
2016,01,24,04,38,0.00
2016,01,24,04,39,0.00
2016,01,24,04,40,0.00
2016,01,24,04,41,0.00
2016,01,24,04,42,0.00
2016,01,24,04,43,0.00
2016,01,24,04,44,0.00
2016,01,24,04,45,0.00
2016,01,24,04,46,0.00
2016,01,24,04,47,0.00
2016,01,24,04,48,0.00
2016,01,24,04,49,0.00
2016,01,24,04,50,0.00
2016,01,24,04,51,0.00
2016,01,24,04,52,0.00
2016,01,24,04,53,0.00
2016,01,24,04,54,0.00
2016,01,24,04,55,0.00
2016,01,24,04,56,0.00
2016,01,24,04,57,0.00
2016,01,24,04,58,0.00
2016,01,24,04,59,0.00
2016,01,24,05,00,0.00
2016,01,24,05,01,0.00
2016,01,24,05,02,0.00
2016,01,24,05,03,0.00
2016,01,24,05,04,0.00
2016,01,24,05,05,0.00
2016,01,24,05,06,0.00
2016,01,24,05,07,0.00
2016,01,24,05,08,0.00
2016,01,24,05,09,0.00
2016,01,24,05,10,0.00
2016,01,24,05,11,0.00
2016,01,24,05,12,0.00
2016,01,24,05,13,0.00
2016,01,24,05,14,0.00
2016,01,24,05,15,0.00
2016,01,24,05,16,0.00
2016,01,24,05,17,0.00
2016,01,24,05,18,0.00
2016,01,24,05,19,0.00
2016,01,24,05,20,0.00
2016,01,24,05,21,0.00
2016,01,24,05,22,0.00
2016,01,24,05,23,0.00
2016,01,24,05,24,0.00
2016,01,24,05,25,0.00
2016,01,24,05,26,0.00
2016,01,24,05,27,0.00
2016,01,24,05,28,0.00
2016,01,24,05,29,0.00
2016,01,24,05,30,0.00
2016,01,24,05,31,0.00
2016,01,24,05,32,0.00
2016,01,24,05,33,0.00
2016,01,24,05,34,0.00
2016,01,24,05,35,0.00
2016,01,24,05,36,0.00
2016,01,24,05,37,0.00
2016,01,24,05,38,0.00
2016,01,24,05,39,0.00
2016,01,24,05,40,0.00
2016,01,24,05,41,0.00
2016,01,24,05,42,0.00
2016,01,24,05,43,0.00
2016,01,24,05,44,0.00
2016,01,24,05,45,0.00
2016,01,24,05,46,0.00
2016,01,24,05,47,0.00
2016,01,24,05,48,0.00
2016,01,24,05,49,0.00
2016,01,24,05,50,0.00
2016,01,24,05,51,0.00
2016,01,24,05,52,0.00
2016,01,24,05,53,0.00
2016,01,24,05,54,0.00
2016,01,24,05,55,0.00
2016,01,24,05,56,0.00
2016,01,24,05,57,0.00
2016,01,24,05,58,0.00
2016,01,24,05,59,0.00
2016,01,24,06,00,0.00
2016,01,24,06,01,0.00
2016,01,24,06,02,0.00
2016,01,24,06,03,0.00
2016,01,24,06,04,0.00
2016,01,24,06,05,0.00
2016,01,24,06,06,0.00
2016,01,24,06,07,0.00
2016,01,24,06,08,0.00
2016,01,24,06,09,0.00
2016,01,24,06,10,0.00
2016,01,24,06,11,0.00
2016,01,24,06,12,0.00
2016,01,24,06,13,0.00
2016,01,24,06,14,0.00
2016,01,24,06,15,0.00
2016,01,24,06,16,0.00
2016,01,24,06,17,0.00
2016,01,24,06,18,0.00
2016,01,24,06,19,0.00
2016,01,24,06,20,0.00
2016,01,24,06,21,0.00
2016,01,24,06,22,0.00
2016,01,24,06,23,0.00
2016,01,24,06,24,0.00
2016,01,24,06,25,0.00
2016,01,24,06,26,0.00
2016,01,24,06,27,0.00
2016,01,24,06,28,0.00
2016,01,24,06,29,0.00
2016,01,24,06,30,0.00
2016,01,24,06,31,0.00
2016,01,24,06,32,0.00
2016,01,24,06,33,0.00
2016,01,24,06,34,0.00
2016,01,24,06,35,0.00
2016,01,24,06,36,0.00
2016,01,24,06,37,0.00
2016,01,24,06,38,0.00
2016,01,24,06,39,0.00
2016,01,24,06,40,0.00
2016,01,24,06,41,0.00
2016,01,24,06,42,0.00
2016,01,24,06,43,0.00
2016,01,24,06,44,0.00
2016,01,24,06,45,0.00
2016,01,24,06,46,0.00
2016,01,24,06,47,0.00
2016,01,24,06,48,0.00
2016,01,24,06,49,0.00
2016,01,24,06,50,0.00
2016,01,24,06,51,0.00
2016,01,24,06,52,0.00
2016,01,24,06,53,0.00
2016,01,24,06,54,0.00
2016,01,24,06,55,0.00
2016,01,24,06,56,0.00
2016,01,24,06,57,0.00
2016,01,24,06,58,0.00
2016,01,24,06,59,0.00
2016,01,24,07,00,0.00
2016,01,24,07,01,0.00
2016,01,24,07,02,0.00
2016,01,24,07,03,0.00
2016,01,24,07,04,0.00
2016,01,24,07,05,0.00
2016,01,24,07,06,0.00
2016,01,24,07,07,0.00
2016,01,24,07,08,0.00
2016,01,24,07,09,0.00
2016,01,24,07,10,0.00
2016,01,24,07,11,0.00
2016,01,24,07,12,0.00
2016,01,24,07,13,0.00
2016,01,24,07,14,0.00
2016,01,24,07,15,0.00
2016,01,24,07,16,0.00
2016,01,24,07,17,0.00
2016,01,24,07,18,0.00
2016,01,24,07,19,0.00
2016,01,24,07,20,0.00
2016,01,24,07,21,0.00
2016,01,24,07,22,0.00
2016,01,24,07,23,0.00
2016,01,24,07,24,0.00
2016,01,24,07,25,0.00
2016,01,24,07,26,0.00
2016,01,24,07,27,0.00
2016,01,24,07,28,0.00
2016,01,24,07,29,0.00
2016,01,24,07,30,0.00
2016,01,24,07,31,0.00
2016,01,24,07,32,0.00
2016,01,24,07,33,0.00
2016,01,24,07,34,0.00
2016,01,24,07,35,0.00
2016,01,24,07,36,0.00
2016,01,24,07,37,0.00
2016,01,24,07,38,0.00
2016,01,24,07,39,0.00
2016,01,24,07,40,0.00
2016,01,24,07,41,0.00
2016,01,24,07,42,0.00
2016,01,24,07,43,0.00
2016,01,24,07,44,0.00
2016,01,24,07,45,0.00
2016,01,24,07,46,0.00
2016,01,24,07,47,0.00
2016,01,24,07,48,0.00
2016,01,24,07,49,0.00
2016,01,24,07,50,0.00
2016,01,24,07,51,0.00
2016,01,24,07,52,0.00
2016,01,24,07,53,0.00
2016,01,24,07,54,0.00
2016,01,24,07,55,0.00
2016,01,24,07,56,0.00
2016,01,24,07,57,0.00
2016,01,24,07,58,0.00
2016,01,24,07,59,0.00
2016,01,24,08,00,0.00
2016,01,24,08,01,0.00
2016,01,24,08,02,0.00
2016,01,24,08,03,0.00
2016,01,24,08,04,0.00
2016,01,24,08,05,0.00
2016,01,24,08,06,0.00
2016,01,24,08,07,0.00
2016,01,24,08,08,0.00
2016,01,24,08,09,0.00
2016,01,24,08,10,0.00
2016,01,24,08,11,0.00
2016,01,24,08,12,0.00
2016,01,24,08,13,0.00
2016,01,24,08,14,2.20
2016,01,24,08,15,5.00
2016,01,24,08,16,5.00
2016,01,24,08,17,5.00
2016,01,24,08,18,5.00
2016,01,24,08,19,5.00
2016,01,24,08,20,5.00
2016,01,24,08,21,5.90
2016,01,24,08,22,7.00
2016,01,24,08,23,7.00
2016,01,24,08,24,7.00
2016,01,24,08,25,7.10
2016,01,24,08,26,9.00
2016,01,24,08,27,9.70
2016,01,24,08,28,11.00
2016,01,24,08,29,11.60
2016,01,24,08,30,12.00
2016,01,24,08,31,12.00
2016,01,24,08,32,12.00
2016,01,24,08,33,12.90
2016,01,24,08,34,16.70
2016,01,24,08,35,18.40
2016,01,24,08,36,19.00
2016,01,24,08,37,20.40
2016,01,24,08,38,21.00
2016,01,24,08,39,21.00
2016,01,24,08,40,21.00
2016,01,24,08,41,21.00
2016,01,24,08,42,21.00
2016,01,24,08,43,21.00
2016,01,24,08,44,21.00
2016,01,24,08,45,21.00
2016,01,24,08,46,21.00
2016,01,24,08,47,21.00
2016,01,24,08,48,21.70
2016,01,24,08,49,23.00
2016,01,24,08,50,23.00
2016,01,24,08,51,23.00
2016,01,24,08,52,24.60
2016,01,24,08,53,25.10
2016,01,24,08,54,26.00
2016,01,24,08,55,26.00
2016,01,24,08,56,26.90
2016,01,24,08,57,29.10
2016,01,24,08,58,30.00
2016,01,24,08,59,32.50
2016,01,24,09,00,33.00
2016,01,24,09,01,33.00
2016,01,24,09,02,33.00
2016,01,24,09,03,34.80
2016,01,24,09,04,38.70
2016,01,24,09,05,41.40
2016,01,24,09,06,43.60
2016,01,24,09,07,44.00
2016,01,24,09,08,44.60
2016,01,24,09,09,49.00
2016,01,24,09,10,57.00
2016,01,24,09,11,66.10
2016,01,24,09,12,72.50
2016,01,24,09,13,79.70
2016,01,24,09,14,93.70
2016,01,24,09,15,107.70
2016,01,24,09,16,99.70
2016,01,24,09,17,94.10
2016,01,24,09,18,91.80
2016,01,24,09,19,90.30
2016,01,24,09,20,88.40
2016,01,24,09,21,84.10
2016,01,24,09,22,83.00
2016,01,24,09,23,83.00
2016,01,24,09,24,83.00
2016,01,24,09,25,75.80
2016,01,24,09,26,67.90
2016,01,24,09,27,67.00
2016,01,24,09,28,65.10
2016,01,24,09,29,64.60
2016,01,24,09,30,63.00
2016,01,24,09,31,60.80
2016,01,24,09,32,53.90
2016,01,24,09,33,53.10
2016,01,24,09,34,61.30
2016,01,24,09,35,70.30
2016,01,24,09,36,77.70
2016,01,24,09,37,81.00
2016,01,24,09,38,78.80
2016,01,24,09,39,73.80
2016,01,24,09,40,72.00
2016,01,24,09,41,69.60
2016,01,24,09,42,62.30
2016,01,24,09,43,62.20
2016,01,24,09,44,65.00
2016,01,24,09,45,71.20
2016,01,24,09,46,75.70
2016,01,24,09,47,79.80
2016,01,24,09,48,85.10
2016,01,24,09,49,90.10
2016,01,24,09,50,93.90
2016,01,24,09,51,97.90
2016,01,24,09,52,100.90
2016,01,24,09,53,103.80
2016,01,24,09,54,109.20
2016,01,24,09,55,112.60
2016,01,24,09,56,111.20
2016,01,24,09,57,112.60
2016,01,24,09,58,109.70
2016,01,24,09,59,107.90
2016,01,24,10,00,112.00
2016,01,24,10,01,115.40
2016,01,24,10,02,114.30
2016,01,24,10,03,114.20
2016,01,24,10,04,115.40
2016,01,24,10,05,111.80
2016,01,24,10,06,108.10
2016,01,24,10,07,107.00
2016,01,24,10,08,107.00
2016,01,24,10,09,107.00
2016,01,24,10,10,113.30
2016,01,24,10,11,120.00
2016,01,24,10,12,125.00
2016,01,24,10,13,135.00
2016,01,24,10,14,135.00
2016,01,24,10,15,135.00
2016,01,24,10,16,140.70
2016,01,24,10,17,142.70
2016,01,24,10,18,158.70
2016,01,24,10,19,148.90
2016,01,24,10,20,140.30
2016,01,24,10,21,142.00
2016,01,24,10,22,146.20
2016,01,24,10,23,148.00
2016,01,24,10,24,148.00
2016,01,24,10,25,154.80
2016,01,24,10,26,184.00
2016,01,24,10,27,233.20
2016,01,24,10,28,273.10
2016,01,24,10,29,267.00
2016,01,24,10,30,317.00
2016,01,24,10,31,331.10
2016,01,24,10,32,311.30
2016,01,24,10,33,234.50
2016,01,24,10,34,185.10
2016,01,24,10,35,190.10
2016,01,24,10,36,187.70
2016,01,24,10,37,190.00
2016,01,24,10,38,189.30
2016,01,24,10,39,179.70
2016,01,24,10,40,170.30
2016,01,24,10,41,161.70
2016,01,24,10,42,165.00
2016,01,24,10,43,171.10
2016,01,24,10,44,192.40
2016,01,24,10,45,163.30
2016,01,24,10,46,160.90
2016,01,24,10,47,159.00
2016,01,24,10,48,169.90
2016,01,24,10,49,169.50
2016,01,24,10,50,155.10
2016,01,24,10,51,149.40
2016,01,24,10,52,149.00
2016,01,24,10,53,149.00
2016,01,24,10,54,144.00
2016,01,24,10,55,133.10
2016,01,24,10,56,132.00
2016,01,24,10,57,133.40
2016,01,24,10,58,129.10
2016,01,24,10,59,127.10
2016,01,24,11,00,127.80
2016,01,24,11,01,126.30
2016,01,24,11,02,127.20
2016,01,24,11,03,132.80
2016,01,24,11,04,139.20
2016,01,24,11,05,145.10
2016,01,24,11,06,147.80
2016,01,24,11,07,147.30
2016,01,24,11,08,153.00
2016,01,24,11,09,153.80
2016,01,24,11,10,152.80
2016,01,24,11,11,152.40
2016,01,24,11,12,153.00
2016,01,24,11,13,155.10
2016,01,24,11,14,159.30
2016,01,24,11,15,164.00
2016,01,24,11,16,158.00
2016,01,24,11,17,148.90
2016,01,24,11,18,139.70
2016,01,24,11,19,128.90
2016,01,24,11,20,120.00
2016,01,24,11,21,116.00
2016,01,24,11,22,119.00
2016,01,24,11,23,122.80
2016,01,24,11,24,117.60
2016,01,24,11,25,114.60
2016,01,24,11,26,115.60
2016,01,24,11,27,120.90
2016,01,24,11,28,125.60
2016,01,24,11,29,130.00
2016,01,24,11,30,134.40
2016,01,24,11,31,134.40
2016,01,24,11,32,131.20
2016,01,24,11,33,130.00
2016,01,24,11,34,137.30
2016,01,24,11,35,158.00
2016,01,24,11,36,158.00
2016,01,24,11,37,158.00
2016,01,24,11,38,158.00
2016,01,24,11,39,188.70
2016,01,24,11,40,175.50
2016,01,24,11,41,170.70
2016,01,24,11,42,192.00
2016,01,24,11,43,196.10
2016,01,24,11,44,210.40
2016,01,24,11,45,200.40
2016,01,24,11,46,196.00
2016,01,24,11,47,280.70
2016,01,24,11,48,302.30
2016,01,24,11,49,375.90
2016,01,24,11,50,327.00
2016,01,24,11,51,350.60
2016,01,24,11,52,380.00
2016,01,24,11,53,380.00
2016,01,24,11,54,227.60
2016,01,24,11,55,162.60
2016,01,24,11,56,136.80
2016,01,24,11,57,125.70
2016,01,24,11,58,128.30
2016,01,24,11,59,140.30
2016,01,24,12,00,150.30
2016,01,24,12,01,151.40
2016,01,24,12,02,141.80
2016,01,24,12,03,135.00
2016,01,24,12,04,136.30
2016,01,24,12,05,138.10
2016,01,24,12,06,137.00
2016,01,24,12,07,138.40
2016,01,24,12,08,143.10
2016,01,24,12,09,146.40
2016,01,24,12,10,154.90
2016,01,24,12,11,173.00
2016,01,24,12,12,199.50
2016,01,24,12,13,202.60
2016,01,24,12,14,202.40
2016,01,24,12,15,212.50
2016,01,24,12,16,242.60
2016,01,24,12,17,268.30
2016,01,24,12,18,274.60
2016,01,24,12,19,289.30
2016,01,24,12,20,303.80
2016,01,24,12,21,302.00
2016,01,24,12,22,302.00
2016,01,24,12,23,301.40
2016,01,24,12,24,285.00
2016,01,24,12,25,285.00
2016,01,24,12,26,285.00
2016,01,24,12,27,309.40
2016,01,24,12,28,286.30
2016,01,24,12,29,265.00
2016,01,24,12,30,265.00
2016,01,24,12,31,277.30
2016,01,24,12,32,321.80
2016,01,24,12,33,303.90
2016,01,24,12,34,373.70
2016,01,24,12,35,394.70
2016,01,24,12,36,387.00
2016,01,24,12,37,616.80
2016,01,24,12,38,618.40
2016,01,24,12,39,556.60
2016,01,24,12,40,530.30
2016,01,24,12,41,577.00
2016,01,24,12,42,566.00
2016,01,24,12,43,563.00
2016,01,24,12,44,563.00
2016,01,24,12,45,563.00
2016,01,24,12,46,465.00
2016,01,24,12,47,269.00
2016,01,24,12,48,190.70
2016,01,24,12,49,128.00
2016,01,24,12,50,128.00
2016,01,24,12,51,128.00
2016,01,24,12,52,128.00
2016,01,24,12,53,179.00
2016,01,24,12,54,257.90
2016,01,24,12,55,229.00
2016,01,24,12,56,267.00
2016,01,24,12,57,283.00
2016,01,24,12,58,200.30
2016,01,24,12,59,197.00
2016,01,24,13,00,225.10
2016,01,24,13,01,292.00
2016,01,24,13,02,235.30
2016,01,24,13,03,183.70
2016,01,24,13,04,178.60
2016,01,24,13,05,171.50
2016,01,24,13,06,171.00
2016,01,24,13,07,171.00
2016,01,24,13,08,193.20
2016,01,24,13,09,244.90
2016,01,24,13,10,264.00
2016,01,24,13,11,200.40
2016,01,24,13,12,262.30
2016,01,24,13,13,230.50
2016,01,24,13,14,246.00
2016,01,24,13,15,225.10
2016,01,24,13,16,218.40
2016,01,24,13,17,263.60
2016,01,24,13,18,276.00
2016,01,24,13,19,330.60
2016,01,24,13,20,346.00
2016,01,24,13,21,343.30
2016,01,24,13,22,338.00
2016,01,24,13,23,325.00
2016,01,24,13,24,281.50
2016,01,24,13,25,240.10
2016,01,24,13,26,223.60
2016,01,24,13,27,202.00
2016,01,24,13,28,191.20
2016,01,24,13,29,155.90
2016,01,24,13,30,137.00
2016,01,24,13,31,173.30
2016,01,24,13,32,175.90
2016,01,24,13,33,167.40
2016,01,24,13,34,171.80
2016,01,24,13,35,193.00
2016,01,24,13,36,193.00
2016,01,24,13,37,196.30
2016,01,24,13,38,190.30
2016,01,24,13,39,195.00
2016,01,24,13,40,228.00
2016,01,24,13,41,241.00
2016,01,24,13,42,217.60
2016,01,24,13,43,189.10
2016,01,24,13,44,207.40
2016,01,24,13,45,183.00
2016,01,24,13,46,217.90
2016,01,24,13,47,193.30
2016,01,24,13,48,223.80
2016,01,24,13,49,224.90
2016,01,24,13,50,200.00
2016,01,24,13,51,200.00
2016,01,24,13,52,200.00
2016,01,24,13,53,163.30
2016,01,24,13,54,137.80
2016,01,24,13,55,139.00
2016,01,24,13,56,138.30
2016,01,24,13,57,135.70
2016,01,24,13,58,132.90
2016,01,24,13,59,132.00
2016,01,24,14,00,139.30
2016,01,24,14,01,145.50
2016,01,24,14,02,144.00
2016,01,24,14,03,145.50
2016,01,24,14,04,149.90
2016,01,24,14,05,159.90
2016,01,24,14,06,164.20
2016,01,24,14,07,163.00
2016,01,24,14,08,192.30
2016,01,24,14,09,172.10
2016,01,24,14,10,157.10
2016,01,24,14,11,169.10
2016,01,24,14,12,183.60
2016,01,24,14,13,192.90
2016,01,24,14,14,156.70
2016,01,24,14,15,151.00
2016,01,24,14,16,158.50
2016,01,24,14,17,181.70
2016,01,24,14,18,207.10
2016,01,24,14,19,213.20
2016,01,24,14,20,211.00
2016,01,24,14,21,211.00
2016,01,24,14,22,216.80
2016,01,24,14,23,193.00
2016,01,24,14,24,194.30
2016,01,24,14,25,206.30
2016,01,24,14,26,210.20
2016,01,24,14,27,210.30
2016,01,24,14,28,205.70
2016,01,24,14,29,211.30
2016,01,24,14,30,217.10
2016,01,24,14,31,215.50
2016,01,24,14,32,224.30
2016,01,24,14,33,238.70
2016,01,24,14,34,242.50
2016,01,24,14,35,212.50
2016,01,24,14,36,174.50
2016,01,24,14,37,172.40
2016,01,24,14,38,170.40
2016,01,24,14,39,161.10
2016,01,24,14,40,157.70
2016,01,24,14,41,154.00
2016,01,24,14,42,144.00
2016,01,24,14,43,139.30
2016,01,24,14,44,140.60
2016,01,24,14,45,137.50
2016,01,24,14,46,131.30
2016,01,24,14,47,124.10
2016,01,24,14,48,116.30
2016,01,24,14,49,113.20
2016,01,24,14,50,113.90
2016,01,24,14,51,114.00
2016,01,24,14,52,115.80
2016,01,24,14,53,118.40
2016,01,24,14,54,113.20
2016,01,24,14,55,109.70
2016,01,24,14,56,105.10
2016,01,24,14,57,97.70
2016,01,24,14,58,86.70
2016,01,24,14,59,79.30
2016,01,24,15,00,76.00
2016,01,24,15,01,76.00
2016,01,24,15,02,76.70
2016,01,24,15,03,78.60
2016,01,24,15,04,83.80
2016,01,24,15,05,84.00
2016,01,24,15,06,87.50
2016,01,24,15,07,95.00
2016,01,24,15,08,85.50
2016,01,24,15,09,70.60
2016,01,24,15,10,63.00
2016,01,24,15,11,63.40
2016,01,24,15,12,70.00
2016,01,24,15,13,74.00
2016,01,24,15,14,83.40
2016,01,24,15,15,95.90
2016,01,24,15,16,90.20
2016,01,24,15,17,84.10
2016,01,24,15,18,84.00
2016,01,24,15,19,86.40
2016,01,24,15,20,88.00
2016,01,24,15,21,88.00
2016,01,24,15,22,88.00
2016,01,24,15,23,86.60
2016,01,24,15,24,90.10
2016,01,24,15,25,89.70
2016,01,24,15,26,85.40
2016,01,24,15,27,81.80
2016,01,24,15,28,78.10
2016,01,24,15,29,75.30
2016,01,24,15,30,74.00
2016,01,24,15,31,68.30
2016,01,24,15,32,65.00
2016,01,24,15,33,61.60
2016,01,24,15,34,59.40
2016,01,24,15,35,57.20
2016,01,24,15,36,56.00
2016,01,24,15,37,51.30
2016,01,24,15,38,46.60
2016,01,24,15,39,43.90
2016,01,24,15,40,40.00
2016,01,24,15,41,41.20
2016,01,24,15,42,45.30
2016,01,24,15,43,48.10
2016,01,24,15,44,47.60
2016,01,24,15,45,44.60
2016,01,24,15,46,39.40
2016,01,24,15,47,39.20
2016,01,24,15,48,40.60
2016,01,24,15,49,42.00
2016,01,24,15,50,42.00
2016,01,24,15,51,44.70
2016,01,24,15,52,46.00
2016,01,24,15,53,46.10
2016,01,24,15,54,46.80
2016,01,24,15,55,45.40
2016,01,24,15,56,44.00
2016,01,24,15,57,42.90
2016,01,24,15,58,40.70
2016,01,24,15,59,40.00
2016,01,24,16,00,41.90
2016,01,24,16,01,44.30
2016,01,24,16,02,46.00
2016,01,24,16,03,46.00
2016,01,24,16,04,46.00
2016,01,24,16,05,46.00
2016,01,24,16,06,46.00
2016,01,24,16,07,46.00
2016,01,24,16,08,46.00
2016,01,24,16,09,46.00
2016,01,24,16,10,46.00
2016,01,24,16,11,46.00
2016,01,24,16,12,44.70
2016,01,24,16,13,42.40
2016,01,24,16,14,40.10
2016,01,24,16,15,39.90
2016,01,24,16,16,39.00
2016,01,24,16,17,38.20
2016,01,24,16,18,37.00
2016,01,24,16,19,35.70
2016,01,24,16,20,33.40
2016,01,24,16,21,33.10
2016,01,24,16,22,35.30
2016,01,24,16,23,37.60
2016,01,24,16,24,39.40
2016,01,24,16,25,42.20
2016,01,24,16,26,47.50
2016,01,24,16,27,50.60
2016,01,24,16,28,48.90
2016,01,24,16,29,44.90
2016,01,24,16,30,39.10
2016,01,24,16,31,37.00
2016,01,24,16,32,38.70
2016,01,24,16,33,44.00
2016,01,24,16,34,46.00
2016,01,24,16,35,46.30
2016,01,24,16,36,52.60
2016,01,24,16,37,50.40
2016,01,24,16,38,47.70
2016,01,24,16,39,43.80
2016,01,24,16,40,40.70
2016,01,24,16,41,37.60
2016,01,24,16,42,32.10
2016,01,24,16,43,25.60
2016,01,24,16,44,22.40
2016,01,24,16,45,19.70
2016,01,24,16,46,16.90
2016,01,24,16,47,16.00
2016,01,24,16,48,16.00
2016,01,24,16,49,16.00
2016,01,24,16,50,16.00
2016,01,24,16,51,14.80
2016,01,24,16,52,11.60
2016,01,24,16,53,11.00
2016,01,24,16,54,11.00
2016,01,24,16,55,11.00
2016,01,24,16,56,9.00
2016,01,24,16,57,7.00
2016,01,24,16,58,7.00
2016,01,24,16,59,7.00
2016,01,24,17,00,7.00
2016,01,24,17,01,5.60
2016,01,24,17,02,5.00
2016,01,24,17,03,4.60
2016,01,24,17,04,0.00
2016,01,24,17,05,0.00
2016,01,24,17,06,0.00
2016,01,24,17,07,0.00
2016,01,24,17,08,0.00
2016,01,24,17,09,0.00
2016,01,24,17,10,0.00
2016,01,24,17,11,0.00
2016,01,24,17,12,0.00
2016,01,24,17,13,0.00
2016,01,24,17,14,0.00
2016,01,24,17,15,0.00
2016,01,24,17,16,0.00
2016,01,24,17,17,0.00
2016,01,24,17,18,0.00
2016,01,24,17,19,0.00
2016,01,24,17,20,0.00
2016,01,24,17,21,0.00
2016,01,24,17,22,0.00
2016,01,24,17,23,0.00
2016,01,24,17,24,0.00
2016,01,24,17,25,0.00
2016,01,24,17,26,0.00
2016,01,24,17,27,0.00
2016,01,24,17,28,0.00
2016,01,24,17,29,0.00